Location: Campestrin
(46.4667°N, 11.7167°E)
Time: 16:49:36
(UTC+00:00)

Cosmos 2026 Rocket - Pass Details

Date: 18 April 2021
Orbit: 938 x 1002 km, 82.9° (Epoch: 06 May)

Event Time Altitude Azimuth Distance (km) Brightness Sun altitude
Rises 19:41:08 0° 348° (NNW) 3,612 7.7 -15.6°
Reaches altitude 10° 19:43:38 10° 346° (NNW) 2,665 7.0 -15.9°
Maximum altitude 19:49:37 64° 266° (W) 1,041 4.3 -16.8°
Drops below altitude 10° 19:55:38 10° 187° (S) 2,671 6.0 -17.6°
Enters shadow 19:56:30 - 185° (S) 2,994 6.2 -17.7°
